Home   Weather   Nzérékoré   Past weeks

Flag for Guinea Past Weather in Nzérékoré, Guinea — Yesterday and Last 2 Weeks

Now
91 °F

Partly sunny.


Feels Like: 103 °F
Forecast: N/A
Wind: 6 mph from Southwest

Location: Roberts Field

Current Time: Apr 27, 2017 at 2:47:57 pm

Latest Report: Apr 27, 2017 at 2:00 pm


Visibility: N/A

Pressure: 29.86 "Hg

Humidity: 59%

Dew Point: 75 °F

Location of NzérékoréLocation

Past Weather in Nzérékoré — Graph

°F

Nzérékoré Temperature Yesterday

Maximum temperature yesterday: 82 °F (at 10:30 am)
Minimum temperature yesterday: 73 °F (at 12:30 pm)
Average temperature yesterday: 78 °F

High & Low Weather Summary for the Past Weeks

 TemperatureHumidityPressure
High93 °F (Apr 14, 1:30 pm)100% (Apr 14, 5:00 am)29.95 "Hg (Apr 14, 5:00 am)
Low73 °F (Apr 20, 5:30 am)59% (Apr 13, 3:00 pm)29.74 "Hg (Apr 13, 5:00 pm)
Average83 °F83%29.84 "Hg
* Reported Apr 12 1:00 pm — Apr 27 1:30 pm, Nzérékoré, Weather by CustomWeather, © 2017

Note: Actual official high and low records may vary slightly from our data, if they occured in-between our weather recording intervals... More about our weather records

Advertising

Nzérékoré Weather History for the Previous 24 Hours

Scroll right to see more
 ConditionsComfort  
Time TempWeatherWind HumidityBarometerVisibility
1:30 pm
Thu, Apr 27
91 °FScattered clouds.12 mph59%29.86 "HgN/A
12:30 pm90 °FScattered clouds.7 mph63%29.89 "HgN/A
12:00 pm90 °FPassing clouds.9 mph59%29.92 "HgN/A
11:30 am88 °FPassing clouds.12 mph62%29.92 "HgN/A
11:00 am88 °FPassing clouds.9 mph62%29.92 "HgN/A
10:00 am86 °FPassing clouds.No wind75%29.95 "HgN/A
9:30 am84 °FPassing clouds.No wind84%29.92 "HgN/A
9:00 am81 °FPassing clouds.No wind89%29.92 "HgN/A
8:30 am79 °FPassing clouds.No wind94%29.89 "HgN/A
8:00 am77 °FScattered clouds.No wind94%29.89 "Hg6 mi
7:30 am75 °FScattered clouds.No wind94%29.89 "Hg5 mi
7:00 am73 °FPassing clouds.No wind94%29.89 "Hg5 mi
6:30 am73 °FPassing clouds.No wind94%29.86 "Hg5 mi
6:00 am75 °FPassing clouds.No wind94%29.86 "Hg5 mi
5:00 am75 °FPassing clouds.No wind94%29.83 "HgN/A
4:00 am75 °FPassing clouds.No wind94%29.83 "HgN/A
3:30 am75 °FPassing clouds.No wind94%29.83 "HgN/A
3:00 am75 °FPassing clouds.No wind94%29.83 "HgN/A
2:00 am75 °FPassing clouds.No wind94%29.86 "HgN/A
1:30 am75 °FPassing clouds.No wind94%29.86 "HgN/A
12:30 am75 °FPassing clouds.No wind94%29.89 "HgN/A
12:00 am77 °FPassing clouds.No wind94%29.89 "HgN/A
11:00 pm
Wed, Apr 26
77 °FPassing clouds.No wind94%29.92 "HgN/A
10:30 pm77 °FPassing clouds.No wind94%29.89 "HgN/A
10:00 pm77 °FPassing clouds.No wind94%29.89 "HgN/A
9:30 pm77 °FPassing clouds.No wind94%29.86 "HgN/A
9:00 pm77 °FPassing clouds.No wind94%29.83 "HgN/A
8:30 pm77 °FPartly cloudy.No wind94%29.83 "HgN/A
8:00 pm77 °FMostly cloudy.No wind94%29.83 "HgN/A
7:30 pm77 °FMore clouds than sun.No wind94%29.83 "HgN/A
6:30 pm77 °FMore clouds than sun.No wind94%29.80 "HgN/A
6:00 pm77 °FMore clouds than sun.No wind94%29.80 "HgN/A
5:30 pm77 °FMore clouds than sun.No wind94%29.83 "HgN/A
5:00 pm77 °FMore clouds than sun.No wind94%29.83 "HgN/A
4:30 pm77 °FMore clouds than sun.No wind94%29.83 "HgN/A
4:00 pm77 °FMore clouds than sun.No wind94%29.83 "HgN/A
3:30 pm77 °FPartly sunny.No wind94%29.83 "HgN/A
3:00 pm77 °FPartly sunny.No wind94%29.83 "HgN/A
2:30 pm75 °FLow clouds.3 mph94%29.83 "HgN/A
2:00 pm75 °FLight rain. Low clouds.3 mph94%29.86 "Hg6 mi
Weather by CustomWeather, © 2017

See weather overviewHow to use our weather pages